www.pogodaiklimat.ru

Погода и климат >> Архив погоды >> Венгрия >> Сомбатхей


ПОГОДА в Сомбатхее

  • Прогноз погоды в Сомбатхее
  • Монитор погоды в Сомбатхее

АРХИВ ПОГОДЫ в Сомбатхее

Время (UTC), дата Ветер
(напр.,м/с)
 
Видим.   Явления Облачность Т
(С)
Тd
(С)
f
(%)
Тe
(С)
Тes
(С)
Комфортность P
(гПа)
Po
(гПа)
Тmin
(С)
Tmax
(С)
R
(мм)
R24
(мм)
S
(см)
19 8.06 С 1 н/о н/о +19.5 +10.0 54 +22 +22 комфорт 1022.8 999.0
20 8.06 н/о н/о +18.6 +10.2 58 1023.5 999.6
21 8.06 С 1 н/о н/о +18.3 +10.2 59 +20 +20 1023.9 999.9
22 8.06 С 2 н/о н/о +18.5 +10.6 60 +19 +19 1024.3 1000.3
23 8.06 С 2 н/о н/о +18.0 +9.9 59 +19 +19 1024.4 1000.4
00 9.06 С 2 н/о н/о +17.8 +9.9 60 +18 +18 1024.3 1000.3
01 9.06 штиль 0 н/о н/о +16.4 +11.1 71 +16 +16 1024.6 1000.5
02 9.06 штиль 0 н/о н/о +15.2 +10.6 74 +15 +15 1024.7 1000.5
03 9.06 С 2 н/о н/о +16.9 +9.8 63 +17 +17 1024.3 1000.2
04 9.06 С 2 н/о н/о +18.3 +9.1 55 +19 +19 1024.2 1000.2
05 9.06 С 3 н/о н/о +19.9 +9.5 51 +21 +21 комфорт 1024.0 1000.2
06 9.06 С 4
{8}
60 км 1/0
[Ac cast Ci sp]
+21.6 +9.2 45 +23 +23 комфорт 1024.1 1000.4 +13.8
07 9.06
{8}
н/о н/о +22.6 +8.7 41 1023.7 1000.1
08 9.06 С 3 н/о н/о +23.1 +9.9 43 +25 +25 комфорт 1023.5 999.9
09 9.06 СВ 2 н/о н/о +24.1 +9.3 39 +25 +25 комфорт 1023.3 999.8
10 9.06 СВ 2 н/о н/о +25.0 +10.5 40 +26 +26 жарко 1022.9 999.5
11 9.06 В 2 н/о н/о +26.1 +10.7 38 +27 +27 жарко 1022.3 999.0
12 9.06 ЮВ 2 65 км 3/0
[Ci sp]
+26.7 +8.2 31 +27 +27 жарко 1021.7 998.5
13 9.06 СВ 1 н/о н/о +27.0 +10.2 35 +28 +28 жарко 1021.2 998.0
14 9.06 В 2 н/о н/о +27.6 +11.2 36 +28 +28 жарко 1020.6 997.4
15 9.06 В 2 60 км 6/1 1500 м
[Cu hum Ci sp]
+27.2 +11.7 38 +28 +28 жарко 1020.1 996.9
16 9.06 В 1 н/о н/о +27.4 +13.0 41 +29 +29 жарко 1019.5 996.4
17 9.06 В 2 н/о н/о +26.1 +13.2 45 +28 +28 жарко 1019.4 996.2
18 9.06 В 2 50 км 8/0
[Ci sp]
+24.7 +14.8 54 +27 +27 жарко 1019.2 995.9 +27.9
19 9.06 В 2 н/о н/о +22.8 +15.1 62 +27 +27 душно 1019.5 996.0
20 9.06 ЮЗ 1 н/о н/о +19.7 +15.4 76 +23 +23 комфорт 1020.1 996.3
21 9.06 З 1 н/о н/о +18.4 +14.7 79 +20 +20 1019.8 995.9
22 9.06 З 1 н/о н/о +17.5 +14.6 83 +19 +19 1019.8 995.9
23 9.06 штиль 0 н/о н/о +16.5 +14.3 87 +16 +16 1019.5 995.5
00 10.06 штиль 0 н/о н/о +15.9 +14.4 91 +16 +16 1019.6 995.5
01 10.06 штиль 0 н/о н/о +15.5 +14.2 92 +15 +15 1019.3 995.2
02 10.06 З 1 н/о н/о +14.9 +13.9 94 +15 +15 1019.0 994.9
03 10.06 штиль 0 н/о н/о +14.6 +13.8 95 +14 +14 1018.2 994.1
04 10.06 З 1 н/о н/о +15.0 +14.4 96 +15 +15 1018.3 994.2
05 10.06 штиль 0 н/о н/о +18.0 +15.6 86 +18 +18 1017.8 994.0
06 10.06 Ю 2 35 км 4/0
[Ci sp]
+21.6 +15.7 69 +25 +25 комфорт 1017.5 994.0 +14.4
07 10.06 Ю 3 н/о н/о +23.5 +16.3 64 +27 +27 душно 1017.0 993.6
08 10.06 Ю 4 н/о н/о +25.3 +17.5 62 +29 +29 душно 1016.5 993.3
09 10.06 Ю 5
{7}
н/о н/о +27.2 +17.4 55 +31 +31 душно 1016.2 993.1
10 10.06 Ю 5
{8}
н/о н/о +28.2 +16.2 48 +31 +31 душно 1015.9 992.9
11 10.06 Ю 4
{7}
н/о н/о +28.5 +16.4 48 +32 +32 душно 1015.5 992.5
12 10.06 Ю 4
{7}
40 км 3/1 1200 м
[Cu med, cong Ci sp]
+29.4 +16.6 46 +33 +33 душно 1014.7 991.8
13 10.06 ЮВ 4
{8}
н/о н/о +29.9 +17.0 46 +34 +34 очень
душно
1013.8 991.0
14 10.06 ЮВ 5
{8}
н/о н/о +29.6 +17.1 47 +33 +33 душно 1013.2 990.4
15 10.06 ЮВ 4
{8}
н/о н/о +29.6 +16.8 46 +33 +33 душно 1012.5 989.7
16 10.06 ЮВ 5
{8}
н/о н/о +29.1 +16.0 45 +32 +32 душно 1011.8 989.0
17 10.06 ЮВ 3
{8}
н/о н/о +28.0 +16.6 50 +32 +32 душно 1011.9 989.0
18 10.06 Ю 1 30 км 4/1 1000 м
[Sc diur, vesp Ci sp]
+26.5 +17.3 57 +31 +31 душно 1012.2 989.2 +30.3
19 10.06 Ю 1 н/о н/о +23.5 +16.8 66 +27 +27 душно 1012.9 989.6
20 10.06 ЮВ 1 н/о н/о +22.0 +16.7 72 +26 +26 душно 1013.3 989.9
21 10.06 штиль 0 н/о н/о +20.2 +16.4 79 +23 +23 комфорт 1013.4 989.8
22 10.06 штиль 0 н/о н/о +19.1 +16.7 86 +21 +21 комфорт 1013.2 989.6
23 10.06 З 1 н/о н/о +18.4 +16.6 89 +20 +20 1013.3 989.6
00 11.06 штиль 0 н/о н/о +17.9 +16.6 92 +18 +18 1012.8 989.1
01 11.06 штиль 0 н/о н/о +17.2 +15.7 91 +17 +17 1012.5 988.7
02 11.06 СЗ 1 н/о н/о +16.4 +15.8 96 +17 +17 1012.1 988.3
03 11.06 С 1 н/о н/о +16.4 +15.8 96 +17 +17 1011.9 988.1
04 11.06 СЗ 1 н/о н/о +17.3 +16.5 95 +18 +18 1012.5 988.7
05 11.06 З 1 н/о н/о +20.7 +18.1 85 +26 +26 душно 1012.0 988.5
06 11.06 ЮВ 2 22 км 1/0
[Ci sp]
+23.5 +18.6 74 +28 +28 душно 1012.2 988.9 +16.1
07 11.06 В 2 н/о н/о +25.1 +19.2 70 +30 +30 душно 1012.2 989.0
08 11.06 ЮВ 2 н/о н/о +27.2 +20.1 65 +33 +33 очень
душно
1012.1 989.1
09 11.06 ЮВ 4 н/о н/о +28.6 +18.4 54 +33 +33 очень
душно
1012.2 989.3
10 11.06 ЮВ 4
{7}
н/о н/о +28.9 +18.7 54 +34 +34 очень
душно
1012.0 989.1
11 11.06 ЮВ 4
{8}
н/о н/о +29.8 +17.6 48 +34 +34 очень
душно
1011.8 989.0
12 11.06 ЮВ 4
{7}
25 км 4/4 1380 м
[Cu med, cong Ci fib]
+30.4 +17.8 47 +35 +35 очень
душно
1011.4 988.7
13 11.06 ЮВ 5
{8}
н/о н/о +30.4 +16.8 44 +34 +34 очень
душно
1011.1 988.4
14 11.06 ЮВ 4
{8}
н/о н/о +30.5 +17.2 45 +34 +34 очень
душно
1010.6 987.9
15 11.06 ЮВ 4
{8}
н/о н/о +30.4 +17.1 45 +34 +34 очень
душно
1010.7 988.0
16 11.06 ЮВ 3 н/о н/о +29.9 +17.0 46 +34 +34 очень
душно
1010.6 987.8
17 11.06 Ю 2 н/о н/о +28.1 +18.8 57 +33 +33 очень
душно
1011.7 988.8
18 11.06 Ю 1 25 км 8/1 1000 м
[Cu med, cong Ac cast Cs]
+26.2 +18.9 64 +31 +31 очень
душно
1011.7 988.6 +30.8
19 11.06 Ю 1 н/о н/о +24.5 +18.2 68 +29 +29 душно 1012.3 989.1
20 11.06 Ю 1 н/о н/о +22.8 +18.1 75 +28 +28 душно 1013.1 989.7
21 11.06 Ю 1 н/о н/о +21.8 +18.2 80 +27 +27 душно 1013.3 989.9
22 11.06 Ю 2 н/о н/о +22.5 +16.5 69 +27 +27 душно 1012.8 989.4
23 11.06 ЮВ 3 н/о н/о +20.8 +15.4 71 +24 +24 комфорт 1012.6 989.1
00 12.06 Ю 2 н/о н/о +19.8 +13.7 68 +22 +22 комфорт 1011.9 988.3
01 12.06 СЗ 1 н/о н/о +18.2 +13.9 76 +20 +20 1011.4 987.7
02 12.06 Ю 2 н/о н/о +17.1 +13.6 80 +17 +17 1011.5 987.7
03 12.06 З 1 н/о н/о +16.4 +13.3 82 +17 +17 1012.1 988.3
04 12.06 Ю 1 н/о н/о +17.0 +14.1 83 +18 +18 1012.8 989.0
05 12.06 штиль 0 н/о н/о +19.4 +14.7 74 +21 +21 комфорт 1012.7 989.1
06 12.06 Ю 1 30 км 3/0
[Cc]
+22.9 +15.5 63 +27 +27 душно 1012.6 989.3 +16.3
07 12.06 ЮВ 3 н/о н/о +25.3 +17.0 60 +29 +29 душно 1012.5 989.4
08 12.06 ЮВ 4
{7}
н/о н/о +26.1 +16.6 56 +30 +30 душно 1012.7 989.6
09 12.06 Ю 4 н/о н/о +27.8 +16.7 51 +31 +31 душно 1012.5 989.5
10 12.06 Ю 5
{7}
н/о н/о +28.6 +17.2 50 +33 +33 очень
душно
1012.2 989.3
11 12.06 ЮВ 5
{9}
н/о н/о +29.0 +17.2 49 +33 +33 очень
душно
1011.7 988.9
12 12.06 ЮВ 5
{9}
40 км 1/1 1200 м
[Cu hum Ci fib]
+30.1 +17.6 47 +34 +34 очень
душно
1011.2 988.4
13 12.06 ЮВ 5
{9}
н/о н/о +30.1 +17.6 47 +34 +34 очень
душно
1010.9 988.2
14 12.06 ЮВ 5
{8}
н/о н/о +30.2 +17.0 45 +34 +34 очень
душно
1010.7 988.0
15 12.06 ЮВ 4
{7}
н/о н/о +30.1 +16.9 45 +34 +34 очень
душно
1010.3 987.6
16 12.06 ЮВ 5
{8}
н/о н/о +29.7 +17.2 47 +34 +34 очень
душно
1010.1 987.3
17 12.06 Ю 4
{8}
н/о н/о +28.5 +17.7 52 +33 +33 очень
душно
1010.1 987.3
18 12.06 ЮВ 2 30 км 5/0
[Cs]
+27.2 +18.8 60 +32 +32 очень
душно
1010.5 987.5 +30.5
19 12.06 ЮВ 2 н/о н/о +24.9 +18.1 66 +29 +29 душно 1011.0 987.9
20 12.06 Ю 1 н/о н/о +23.3 +18.2 73 +29 +29 душно 1011.8 988.5
21 12.06 штиль 0 н/о н/о +21.9 +17.9 78 +27 +27 душно 1012.0 988.6
22 12.06 штиль 0 н/о н/о +21.3 +18.1 82 +26 +26 душно 1011.9 988.5
23 12.06 ЮВ 1 н/о н/о +20.4 +18.0 86 +25 +25 комфорт 1012.0 988.5
00 13.06 С 1 н/о н/о +19.7 +18.2 91 +23 +23 комфорт 1012.0 988.4
01 13.06 штиль 0 н/о н/о +18.5 +17.3 93 +19 +19 1011.8 988.1
02 13.06 С 1 н/о н/о +18.4 +17.2 93 +20 +20 1011.7 988.0
03 13.06 штиль 0 н/о н/о +17.5 +16.7 95 +17 +17 1011.9 988.2
04 13.06 СВ 1 н/о н/о +18.3 +17.7 96 +20 +20 1012.3 988.6
05 13.06 штиль 0 н/о н/о +21.6 +18.8 84 +26 +26 душно 1012.3 988.9
06 13.06 Ю 2 18 км 1/0
[Ci sp]
+23.3 +18.4 74 +29 +29 душно 1012.5 989.2 +17.2
07 13.06 Ю 1 н/о н/о +25.1 +19.2 70 +30 +30 душно 1012.5 989.3
08 13.06 ЮВ 2 н/о н/о +26.6 +19.5 65 +32 +32 очень
душно
1012.5 989.5
09 13.06 Ю 3 22 км 1/1 900 м
[Cu med, cong Ci fib]
+28.3 +19.2 58 +34 +34 очень
душно
1012.3 989.4
10 13.06 Ю 3 н/о н/о +29.8 +18.9 52 +35 +35 очень
душно
1012.3 989.5
11 13.06 Ю 4
{7}
н/о н/о +30.5 +18.3 48 +35 +35 очень
душно
1011.9 989.2
12 13.06 Ю 4
{8}
25 км 3/3 1080 м
[Cu med, cong]
+30.4 +17.5 46 +34 +34 очень
душно
1011.6 988.9
13 13.06 Ю 5
{9}
н/о н/о +30.9 +18.3 47 +36 +36 очень
душно
1011.4 988.7
14 13.06 Ю 5
{9}
н/о н/о +31.7 +15.6 38 +34 +34 душно 1011.3 988.7
15 13.06 Ю 5
{8}
25 км 3/3 1300 м
[Cu med, cong Ci sp]
+30.9 +16.9 43 +34 +34 душно 1011.3 988.6
16 13.06 Ю 4
{9}
н/о н/о +30.8 +15.6 40 +33 +33 душно 1011.1 988.4
17 13.06 Ю 4
{9}
н/о н/о +29.8 +15.9 43 +33 +33 душно 1011.3 988.5
18 13.06 Ю 3
{8}
20 км 1/0
[Ci sp]
+27.8 +16.4 50 +31 +31 душно 1011.5 988.6 +31.9
19 13.06 Ю 3 н/о н/о +25.6 +15.0 52 +28 +28 жарко 1011.8 988.7
20 13.06 Ю 2 н/о н/о +23.7 +15.0 58 +27 +27 жарко 1012.5 989.2
21 13.06 ЮЗ 2 30 км 1/0
[Ci sp]
+21.1 +14.5 66 +24 +24 комфорт 1013.0 989.5
22 13.06 В 1 н/о н/о +19.4 +14.2 72 +22 +22 комфорт 1014.0 990.4
23 13.06 Ю 3 н/о н/о +19.2 +13.4 69 +21 +21 комфорт 1013.9 990.2
00 14.06 Ю 1 30 км 1/0
[Ac lent Ci sp]
+18.6 +12.6 68 +20 +20 1014.2 990.5
01 14.06 штиль 0 н/о н/о +16.2 +12.6 79 +16 +16 1014.8 990.9
02 14.06 Ю 1 н/о н/о +15.0 +12.7 86 +15 +15 1015.0 991.0
03 14.06 С 1 20 км 3/0
[Ci sp]
+15.1 +12.8 86 +16 +16 1016.1 992.1
04 14.06 штиль 0 н/о н/о +16.4 +14.1 86 +16 +16 1016.5 992.6
05 14.06 Ю 1 н/о н/о +19.2 +14.7 75 +22 +22 комфорт 1016.7 993.0
06 14.06 ЮВ 1 25 км 1/0
[Ci sp]
+21.9 +15.7 68 +26 +26 душно 1017.1 993.6 +14.6
07 14.06 С 1 н/о н/о +25.4 +16.5 58 +29 +29 душно 1017.5 994.2
08 14.06 СЗ 2
{7}
н/о н/о +27.6 +16.9 52 +31 +31 душно 1017.6 994.5
09 14.06 СЗ 1 н/о н/о +28.7 +16.6 48 +32 +32 душно 1017.5 994.5
10 14.06 СВ 2
{7}
н/о н/о +29.9 +18.7 51 +35 +35 очень
душно
1017.6 994.7
11 14.06 СВ 3
{7}
н/о н/о +29.7 +18.2 50 +34 +34 очень
душно
1017.5 994.6
12 14.06 В 2 30 км 3/3 1300 м
[Cu med, cong Ci fib]
+30.4 +19.1 51 +36 +36 очень
душно
1017.3 994.4
13 14.06 В 1 н/о н/о +30.8 +18.5 48 +36 +36 очень
душно
1016.8 994.0
14 14.06 В 2 н/о н/о +31.1 +18.5 47 +36 +36 очень
душно
1016.4 993.6
15 14.06 ЮВ 2 н/о н/о +31.5 +18.8 47 +37 +37 очень
душно
1016.1 993.3
16 14.06 Ю 3 н/о н/о +31.1 +18.1 46 +36 +36 очень
душно
1015.9 993.1
17 14.06 ЮВ 2 н/о н/о +30.2 +19.3 52 +36 +36 очень
душно
1015.6 992.8
18 14.06 Ю 1 23 км 4/0
[Ci ing]
+27.7 +19.2 60 +33 +33 очень
душно
1015.9 992.9 +31.7
19 14.06 ЮЗ 1 н/о н/о +24.9 +18.4 67 +29 +29 душно 1016.3 993.0
20 14.06 штиль 0 н/о н/о +23.0 +18.1 74 +29 +29 очень
душно
1016.7 993.3
21 14.06 ЮЗ 1 н/о н/о +20.8 +18.0 84 +26 +26 душно 1016.8 993.2
22 14.06 Ю 1 н/о н/о +19.9 +17.5 86 +24 +24 комфорт 1016.6 992.9
23 14.06 СЗ 1 н/о н/о +19.3 +17.8 91 +22 +22 комфорт 1016.4 992.7
00 15.06 З 1 н/о н/о +18.2 +16.9 92 +20 +20 1016.2 992.4
01 15.06 штиль 0 н/о н/о +17.3 +16.3 94 +17 +17 1015.6 991.8
02 15.06 штиль 0 н/о н/о +17.2 +16.6 96 +17 +17 1015.6 991.7
03 15.06 З 1 н/о н/о +16.4 +15.8 96 +17 +17 1015.2 991.3
04 15.06 ЮВ 1 н/о н/о +18.2 +17.4 95 +20 +20 1015.2 991.4
05 15.06 Ю 1 н/о н/о +20.2 +18.3 89 +25 +25 комфорт 1014.7 991.1
06 15.06 ЮЗ 2 н/о н/о +23.2 +18.5 75 +29 +29 душно 1014.6 991.2 +16.2
07 15.06 Ю 2 н/о н/о +25.4 +17.6 62 +30 +30 душно 1014.6 991.4
08 15.06 Ю 3 н/о н/о +26.1 +18.5 63 +31 +31 очень
душно
1014.6 991.5
09 15.06 Ю 4 н/о н/о +27.5 +17.7 55 +32 +32 очень
душно
1014.3 991.3
10 15.06 Ю 5
{7}
н/о н/о +28.7 +18.2 53 +33 +33 очень
душно
1013.9 991.0
11 15.06 Ю 4
{8}
н/о н/о +30.2 +18.3 49 +35 +35 очень
душно
1013.6 990.8
12 15.06 Ю 5
{7}
н/о н/о +30.7 +18.1 47 +35 +35 очень
душно
1013.1 990.3
13 15.06 Ю 4
{7}
н/о н/о +30.8 +17.8 46 +35 +35 очень
душно
1012.7 990.0
14 15.06 Ю 4
{7}
н/о н/о +31.1 +17.4 44 +35 +35 очень
душно
1012.3 989.6
15 15.06 Ю 3 н/о н/о +30.1 +18.5 50 +35 +35 очень
душно
1011.7 988.9
16 15.06 Ю 3 н/о н/о +30.0 +19.7 54 +36 +36 очень
душно
1011.3 988.5
17 15.06 Ю 3 н/о н/о +28.2 +17.7 53 +33 +33 очень
душно
1011.1 988.2
18 15.06 Ю 2 н/о н/о +27.2 +19.0 61 +32 +32 очень
душно
1011.4 988.4 +31.6
19 15.06 Ю 1 н/о н/о +24.9 +18.8 69 +30 +30 душно 1011.7 988.5
20 15.06 Ю 1 н/о н/о +22.1 +18.3 79 +27 +27 душно 1012.2 988.8

 

Местоположение метеостанции Сомбатхей (Венгрия): широта 47.27 долгота 16.63 высота над уровнем моря 221 м.

В архиве по умолчанию представлена погода в Сомбатхее за последнюю неделю. Архивные данные за месяц целиком и за предыдущие месяцы, начиная с января 2011 года, Вы можете получить, выбрав интересующий диапазон дат из раскрывающегося списка и нажав кнопку "Ввод!".


*Определитесь, кто Вы:
робот инопланетянин человек

Внимание! Время в таблицах - всемирное. Для получения местного времени необходимо прибавить поправку, которая равна 1 ч.

Смотрите также архив погоды в соседних городах и на ближайших метеорологических станциях:

Погода в Луцмансбурге (Австрия) (22 км)
Погода в Кляйнциккене (Австрия) (24 км)
Погода в Бад-Тацмансдорфе (Австрия) (32 км)
Погода в Крумбахе (Австрия) (44 км)
Погода в Сентготтхарде (Венгрия) (45 км)
Погода в Шопроне (Венгрия) (46 км)
Погода в Залаэгерсеге (Венгрия) (46 км)
Погода в Хартберге (Австрия) (49 км)
Погода в Мёнихкирхене (Австрия) (53 км)
Погода в Андау (Австрия) (63 км)

Пояснения к столбцам:

Ветер - указаны скорость ветра в м/с - средняя за 10 мин, порывы в срок и между сроками (в фигурных скобках) и направление, откуда дует ветер: С - северный, СВ - северо-восточный, В - восточный, ЮВ - юго-восточный, Ю - южный, ЮЗ - юго-западный, З - западный, СЗ - северо-западный.
Видимость - горизонтальная дальность видимости в метрах или километрах. При видимости от 1 до 10 км при отсутствии осадков обычно наблюдается дымка, при ухудшении видимости до 1 км и менее - туман. В сухую погоду видимость может ухудшаться дымом, пылью или мглою.
Явления - указаны атмосферные явления, наблюдавшиеся в срок или в последний час перед сроком; фигурными скобками обозначены явления, наблюдавшиеся между сроками (за 1-3 часа до срока); квадратными скобками обозначены град или гололедные отложения с указанием их диаметра в мм.
Облачность - указаны через наклонную черту общая и нижняя облачность в баллах и высота нижней границы облаков в метрах; квадратными скобками обозначены формы облаков: Ci - перистые, Cs - перисто-слоистые, Cc - перисто-кучевые, Ac - высококучевые, As - высокослоистые, Sc - слоисто-кучевые, Ns - слоисто-дождевые, Cu - кучевые, Cb - кучево-дождевые. Подробнее классификацию облаков см. в Атласе облаков (PDF).
T - Температура воздуха - температура, измеренная на высоте 2 м над землей.
Td - Температура точки росы - температура, при понижении до которой содержащийся в воздухе водяной пар достигнет насыщения.
f - Относительная влажность воздуха - влажноcть воздуха, измеренная на высоте 2 м над землей.
Te - Эффективная температура - температура, которую ощущает одетый по сезону человек в тени. Характеристика душности погоды. При расчете учитывается влияние влажности воздуха и скорости ветра на теплоощущения человека.
Tes - Эффективная температура на солнце - температура, которую ощущает человек, с поправкой на солнечный нагрев. Характеристика знойности погоды. Зависит от высоты солнца над горизонтом, облачности и скорости ветра. Ночью, в пасмурную погоду, а также при ветре 12 м/с и более поправка равна нулю.
P - Атмосферное давление - приведенное к уровню моря атмосферное давление.
Po - Атмосферное давление - измеренное на уровне метеостанции атмосферное давление.
Tmin - Минимальная температура - минимум температуры воздуха на высоте 2 м над землей.
Tmax - Максимальная температура - максимум температуры воздуха на высоте 2 м над землей.
R - Количество осадков - Количество выпавших осадков за период времени, мм. При наведении курсора мыши на число - период времени, за который выпало указанное количество осадков.
R24 - Количество осадков - Количество выпавших осадков за 24 часа, мм.
S - Снежный покров - Высота снежного покрова, см. При наведении курсора мыши на число - состояние снежного покрова и степень покрытия местности в баллах.